Location: Unspecified
(40.7945°N, 111.1337°W)
Time: 06:38:56
(UTC-06:00)

Vanguard 1 - Pass Details

Date: 04 July 2019
Orbit: 653 x 3830 km, 34.3° (Epoch: 20 July)

Event Time Altitude Azimuth Distance (km) Brightness Sun altitude
Rises 00:52:49 0° 238° (WSW) 7,583 14.4 -25.8°
Reaches altitude 10° 00:57:45 10° 235° (SW) 6,755 14.1 -25.9°
Maximum altitude 01:20:42 63° 162° (SSE) 3,905 12.7 -26.3°
Drops below altitude 10° 01:38:36 10° 87° (E) 5,469 13.9 -26.3°
Sets 01:42:04 0° 84° (E) 6,140 14.2 -26.2°
